Regional Weather Roundup
Issued by NWS Kansas City/Pleasant Hill, MO

Home | Current Version | Previous Version | Text Only | Print | Product List | Glossary On
Versions: 1 2 3 4 5 6 7 8 9 10 11 12 13 14 15 16 17 18 19 20 21 22 23 24 25 26 27 28 29 30 31 32 33 34 35 36 37 38 39 40 41 42 43 44 45 46 47 48 49 50
000
ASUS43 KEAX 182010
RWREAX

WEATHER ROUNDUP FOR EASTERN KANSAS AND NORTHWEST MISSOURI
NATIONAL WEATHER SERVICE KANSAS CITY/PLEASANT HILL MO
200 PM CST WED JAN 18 2017

KSZ040-057-103>105-MOZ028-029-037-043-182100-
...KANSAS CITY METROPOLITAN AREA...

CITY           SKY/WX    TMP DP  RH WIND       PRES   REMARKS
K.C. INTL      MOSUNNY   45  37  73 S7        30.05F
K.C. DOWNTOWN  MOSUNNY   45  38  76 VRB6      30.06F
LEES SUMMIT    MOSUNNY   43  38  82 CALM      30.06F
OLATHE - IXD   SUNNY     44  39  82 S5        30.05F
OLATHE - OJC   SUNNY     44  40  85 S3        30.05F
LAWRENCE       SUNNY     46  37  71 SE7       30.04F

$$

MOZ001>008-011>017-020>025-030>033-038>040-044>046-053-054-182100-
...NORTHERN AND CENTRAL MISSOURI...

CITY           SKY/WX    TMP DP  RH WIND       PRES   REMARKS
ST. JOSEPH     SUNNY     47  41  80 S12       30.04F
MOSBY          CLOUDY    37  37 100 SE5       30.07F WCI  34
WARRENSBURG    SUNNY     46  37  71 S6        30.08F
WHITEMAN AFB   MOSUNNY   47  42  81 S6        30.06F
CLINTON        CLOUDY    46  37  71 S8        30.09F
SEDALIA        SUNNY     48  39  71 S7        30.09F
WARSAW         NOT AVBL
CHILLICOTHE      N/A     40  37  89 S7        30.09F
KIRKSVILLE     CLOUDY    40  36  86 SW9       30.08F WCI  34

$$

MOZ041-047>049-056>058-063>065-088>090-097-182100-
...EASTERN AND SOUTHERN MISSOURI...

CITY           SKY/WX    TMP DP  RH WIND       PRES   REMARKS
ST. LOUIS INTL CLOUDY    48  32  53 S8        30.13F
SPIRIT OF STL  CLOUDY    48  34  58 VRB3      30.12F
COLUMBIA       MOSUNNY   46  36  68 S7        30.09F
JEFFERSON CITY PTSUNNY   47  36  65 E7        30.10F
ROLLA          MOSUNNY   49  35  58 S7        30.09F
OSAGE BEACH    PTSUNNY   48  36  63 VRB3      30.11F
SPRINGFIELD    CLOUDY    50  35  56 SE8       30.06F
BRANSON        CLOUDY    41  39  93 E9        30.09F
JOPLIN         CLOUDY    52  40  63 SE6       30.06F
WEST PLAINS    CLOUDY    42  38  85 SE6       30.12F

$$

IAZ060-094-KSZ022-034>040-054-083-096-NEZ052-066-093-182100-
...KANSAS...SOUTHEAST NEBRASKA AND IOWA...

CITY           SKY/WX    TMP DP  RH WIND       PRES   REMARKS
TOPEKA         SUNNY     53  36  52 S9        30.02F
MANHATTAN      SUNNY     57  34  41 S16G22    29.98F
EMPORIA        PTSUNNY   54  33  45 S15       30.01F
CHANUTE        CLOUDY    47  39  74 S7        30.06F
WICHITA        PTSUNNY   53  39  59 S15       30.01F
OMAHA          MOSUNNY   48  39  71 S14       29.93F
LINCOLN        SUNNY     51  39  63 S15       29.94F
FALLS CITY     SUNNY     51  38  60 S10       29.99F
LAMONI         PTSUNNY   36  35  96 S12       30.02F WCI  28
DES MOINES     MOSUNNY   47  38  71 S16       29.98F

$$




USA.gov is the U.S. government's official web portal to all federal, state and local government web resources and services.